Tracking 30922 objects as of 2-Jul-2025
HD Live streaming from Space Station
objects crossing your sky now

COSMOS 2251 DEB

Track COSMOS 2251 DEB now!
10-day predictions


NORAD ID: 34045
Int'l Code: 1993-036JG
Perigee: 766.8 km
Apogee: 804.5 km
Inclination: 74.0 °
Period: 100.4 minutes
Semi major axis: 7156 km
RCS: 0.1155 m2 (medium)
Launch date: June 16, 1993
Source: Commonwealth of Independent States (former USSR) (CIS)
Launch site: PLESETSK MISSILE AND SPACE COMPLEX (PKMTR)

Note: This is SATELLITE DEBRIS
Your satellite tracking list
Your tracking list is empty




NASA's NSSDC Master Catalog

Two Line Element Set (TLE):
1 34045U 93036JG  25182.66925395  .00000124  00000-0  53618-4 0  9994
2 34045  74.0383 251.0074 0026385  14.3996 101.1925 14.33963473856818
Source of the keplerian elements: AFSPC